Weather History for KHAF - April, 2013

Change the Weather History Date:

Tuesday, April 9, 2013

  Actual Average Record
Temperature  
Mean Temperature 53 °F -  
Max Temperature 60 °F 61 °F 60 °F (2013)
Min Temperature 46 °F 44 °F 41 °F (2012)
Degree Days  
Heating Degree Days 12    
Growing Degree Days 3 (Base 50)    
Moisture  
Dew Point 46 °F    
Average Humidity 76    
Maximum Humidity 93    
Minimum Humidity 55    
Precipitation  
Precipitation 0.00 in - - ()
Sea Level Pressure  
Sea Level Pressure 30.09 in    
Wind  
Wind Speed 16 mph (North)    
Max Wind Speed 25 mph    
Max Gust Speed 34 mph    
Visibility 5 miles    
Events      
Averages and records for this station are not official NWS values.
T = Trace of Precipitation, MM = Missing Value Source: NWS Daily Summary

Daily Weather History Graph

Daily Weather History Graph

Search for Another Location

Airport or City:

Trip Planner

Search our weather history database for the weather conditions in past years. The results will help you decide how hot, cold, wet, or windy it might be!

Date:

Astronomy

Apr. 09, 2013 Rise Set
Actual Time 6:43 AM PDT 7:40 PM PDT
Civil Twilight 6:16 AM PDT 8:07 PM PDT
Nautical Twilight 5:44 AM PDT 8:38 PM PDT
Astronomical Twilight 5:12 AM PDT 9:11 PM PDT
Moon 6:08 AM PDT (4/9) 7:21 PM PDT (4/9)
Length of Visible Light 13h 50m
Length of Day
12h 57m
Waning Crescent, 0% of the Moon is Illuminated
Apr 9
Waning Crescent
Apr 10
New
Apr 18
First Quarter
Apr 25
Full
May 2
Last Quarter

Hourly Weather History & Observations

Time (PDT) Temp. Windchill Dew Point Humidity Pressure Visibility Wind Dir Wind Speed Gust Speed Precip Events Conditions
12:15 AM 50.0 °F - 46.4 °F 87% 30.05 in 3.0 mi NNW 18.4 mph - N/A   Mostly Cloudy
12:35 AM 50.0 °F - 46.4 °F 87% 30.05 in 4.0 mi NNW 17.3 mph - N/A   Scattered Clouds
12:55 AM 50.0 °F - 46.4 °F 87% 30.06 in 3.0 mi North 13.8 mph 21.9 mph N/A   Clear
1:15 AM 50.0 °F - 46.4 °F 87% 30.07 in 4.0 mi North 18.4 mph 24.2 mph N/A   Clear
1:35 AM 50.0 °F - 46.4 °F 87% 30.07 in 4.0 mi North 19.6 mph 26.5 mph N/A   Clear
1:55 AM 50.0 °F - 46.4 °F 87% 30.06 in 4.0 mi North 15.0 mph 21.9 mph N/A   Partly Cloudy
2:15 AM 50.0 °F - 46.4 °F 87% 30.06 in 4.0 mi North 19.6 mph 24.2 mph N/A   Mostly Cloudy
2:35 AM 50.0 °F - 46.4 °F 87% 30.05 in 4.0 mi North 17.3 mph 21.9 mph N/A   Mostly Cloudy
2:55 AM 50.0 °F - 46.4 °F 87% 30.06 in 4.0 mi North 16.1 mph - N/A   Mostly Cloudy
3:15 AM 50.0 °F - 46.4 °F 87% 30.06 in 4.0 mi North 16.1 mph 20.7 mph N/A   Mostly Cloudy
3:35 AM 50.0 °F - 44.6 °F 82% 30.06 in 5.0 mi North 12.7 mph 19.6 mph N/A   Haze
3:55 AM 50.0 °F - 44.6 °F 82% 30.06 in 5.0 mi North 11.5 mph - N/A   Haze
4:15 AM 50.0 °F - 44.6 °F 82% 30.06 in 5.0 mi NNE 12.7 mph 18.4 mph N/A   Haze
4:35 AM 50.0 °F - 44.6 °F 82% 30.06 in 5.0 mi North 12.7 mph - N/A   Haze
4:55 AM 50.0 °F - 46.4 °F 87% 30.06 in 5.0 mi North 15.0 mph 19.6 mph N/A   Partly Cloudy
5:15 AM 50.0 °F - 46.4 °F 87% 30.06 in 5.0 mi North 16.1 mph 24.2 mph N/A   Clear
5:35 AM 50.0 °F - 46.4 °F 87% 30.06 in 5.0 mi North 17.3 mph 25.3 mph N/A   Clear
5:55 AM 50.0 °F - 46.4 °F 87% 30.07 in 5.0 mi North 15.0 mph 23.0 mph N/A   Clear
6:15 AM 50.0 °F - 46.4 °F 87% 30.07 in 5.0 mi NNW 15.0 mph - N/A   Clear
6:35 AM 50.0 °F - 44.6 °F 82% 30.08 in 5.0 mi NNW 19.6 mph - N/A   Haze
6:55 AM 50.0 °F - 44.6 °F 82% 30.09 in 4.0 mi NW 15.0 mph - N/A   Haze
7:15 AM 50.0 °F - 44.6 °F 82% 30.09 in 3.0 mi NNW 12.7 mph - N/A   Haze
7:35 AM 51.8 °F - 44.6 °F 76% 30.09 in 5.0 mi NNW 15.0 mph - N/A   Haze
7:55 AM 53.6 °F - 44.6 °F 72% 30.10 in 5.0 mi North 11.5 mph - N/A   Haze
8:15 AM 51.8 °F - 46.4 °F 82% 30.10 in 3.0 mi NNW 17.3 mph - N/A   Haze
8:35 AM 53.6 °F - 46.4 °F 77% 30.10 in 4.0 mi NNW 17.3 mph - N/A   Haze
8:55 AM 55.4 °F - 46.4 °F 72% 30.10 in 5.0 mi NNW 12.7 mph - N/A   Haze
9:15 AM 57.2 °F - 44.6 °F 63% 30.10 in 5.0 mi NNW 17.3 mph - N/A   Haze
9:35 AM 53.6 °F - 46.4 °F 77% 30.10 in 5.0 mi NNW 20.7 mph 26.5 mph N/A   Haze
9:55 AM 55.4 °F - 46.4 °F 72% 30.10 in 5.0 mi North 17.3 mph - N/A   Haze
10:15 AM 57.2 °F - 44.6 °F 63% 30.11 in 7.0 mi North 17.3 mph 23.0 mph N/A   Clear
10:35 AM 57.2 °F - 46.4 °F 67% 30.11 in 6.0 mi North 17.3 mph - N/A   Haze
10:55 AM 57.2 °F - 46.4 °F 67% 30.11 in 5.0 mi North 18.4 mph 24.2 mph N/A   Haze
11:15 AM 57.2 °F - 44.6 °F 63% 30.12 in 6.0 mi North 18.4 mph 23.0 mph N/A   Haze
11:35 AM 57.2 °F - 44.6 °F 63% 30.12 in 6.0 mi NNW 19.6 mph - N/A   Haze
11:55 AM 57.2 °F - 46.4 °F 67% 30.12 in 5.0 mi North 18.4 mph 26.5 mph N/A   Haze
12:15 PM 57.2 °F - 44.6 °F 63% 30.12 in 5.0 mi North 16.1 mph 27.6 mph N/A   Haze
12:35 PM 57.2 °F - 46.4 °F 67% 30.12 in 6.0 mi North 19.6 mph 26.5 mph N/A   Haze
12:55 PM 59.0 °F - 46.4 °F 63% 30.12 in 6.0 mi North 18.4 mph 24.2 mph N/A   Haze
1:15 PM 59.0 °F - 46.4 °F 63% 30.10 in 7.0 mi North 20.7 mph 25.3 mph N/A   Clear
1:35 PM 59.0 °F - 44.6 °F 59% 30.10 in 7.0 mi North 19.6 mph 27.6 mph N/A   Clear
1:55 PM 60.8 °F - 44.6 °F 55% 30.09 in 6.0 mi North 18.4 mph 27.6 mph N/A   Haze
2:15 PM 60.8 °F - 44.6 °F 55% 30.10 in 5.0 mi North 17.3 mph 25.3 mph N/A   Haze
2:35 PM 59.0 °F - 44.6 °F 59% 30.09 in 6.0 mi North 17.3 mph 28.8 mph N/A   Haze
2:55 PM 59.0 °F - 44.6 °F 59% 30.09 in 5.0 mi North 24.2 mph 33.4 mph N/A   Haze
3:10 PM 59.0 °F - 46.4 °F 63% 30.09 in 5.0 mi North 18.4 mph 27.6 mph N/A   Haze
3:30 PM 59.0 °F - 46.4 °F 63% 30.09 in 5.0 mi North 17.3 mph 26.5 mph N/A   Haze
3:50 PM 59.0 °F - 46.4 °F 63% 30.09 in 5.0 mi North 16.1 mph 25.3 mph N/A   Haze
4:10 PM 59.0 °F - 46.4 °F 63% 30.08 in 5.0 mi North 16.1 mph 24.2 mph N/A   Haze
4:30 PM 59.0 °F - 46.4 °F 63% 30.08 in 5.0 mi NNW 19.6 mph 26.5 mph N/A   Haze
4:50 PM 57.2 °F - 46.4 °F 67% 30.07 in 5.0 mi NNW 25.3 mph 32.2 mph N/A   Haze
5:10 PM 57.2 °F - 46.4 °F 67% 30.08 in 4.0 mi NNW 23.0 mph 34.5 mph N/A   Haze
5:30 PM 57.2 °F - 46.4 °F 67% 30.08 in 4.0 mi NNW 20.7 mph 28.8 mph N/A   Haze
5:50 PM 55.4 °F - 46.4 °F 72% 30.08 in 4.0 mi North 20.7 mph 27.6 mph N/A   Haze
6:10 PM 55.4 °F - 46.4 °F 72% 30.08 in 4.0 mi NNW 20.7 mph 28.8 mph N/A   Haze
6:30 PM 55.4 °F - 46.4 °F 72% 30.08 in 4.0 mi North 16.1 mph 24.2 mph N/A   Haze
6:50 PM 55.4 °F - 46.4 °F 72% 30.07 in 4.0 mi NNW 20.7 mph 26.5 mph N/A   Haze
7:10 PM 55.4 °F - 46.4 °F 72% 30.08 in 4.0 mi North 19.6 mph 24.2 mph N/A   Haze
7:50 PM 53.6 °F - 46.4 °F 77% 30.08 in 3.0 mi North 12.7 mph - N/A   Haze
8:10 PM 53.6 °F - 46.4 °F 77% 30.08 in 5.0 mi North 8.1 mph - N/A   Haze
8:30 PM 53.6 °F - 46.4 °F 77% 30.09 in 5.0 mi NE 3.5 mph - N/A   Haze
8:50 PM 53.6 °F - 46.4 °F 77% 30.10 in 5.0 mi Calm Calm - N/A   Haze
9:10 PM 53.6 °F - 46.4 °F 77% 30.11 in 5.0 mi Calm Calm - N/A   Haze
9:30 PM 51.8 °F - 46.4 °F 82% 30.11 in 5.0 mi Calm Calm - N/A   Haze
9:50 PM 50.0 °F - 46.4 °F 87% 30.12 in 4.0 mi ESE 3.5 mph - N/A   Haze
10:10 PM 50.0 °F - 46.4 °F 87% 30.12 in 4.0 mi Calm Calm - N/A   Haze
10:30 PM 50.0 °F - 46.4 °F 87% 30.12 in 4.0 mi SE 4.6 mph - N/A   Clear
10:50 PM 48.2 °F - 46.4 °F 93% 30.12 in 3.0 mi South 4.6 mph - N/A   Partly Cloudy
11:10 PM 48.2 °F - 46.4 °F 93% 30.12 in 3.0 mi Calm Calm - N/A   Mostly Cloudy
11:30 PM 46.4 °F 45.2 °F 44.6 °F 93% 30.12 in 3.0 mi NNE 3.5 mph - N/A   Overcast
11:50 PM 46.4 °F 44.3 °F 44.6 °F 93% 30.11 in 2.5 mi NNE 4.6 mph - N/A   Overcast